Regional Weather Roundup
Issued by NWS

Home | Current Version | Previous Version | Graphics & Text | Print | Product List | Glossary Off
Versions: 1 2 3 4 5 6 7 8 9 10 11 12 13 14 15 16 17 18 19 20 21 22 23 24 25 26 27 28 29 30 31 32 33 34 35 36 37 38 39 40 41 42 43 44 45 46 47 48 49 50

000
ASUS43 KBIS 292210
RWRND

NORTH DAKOTA REGIONAL WEATHER ROUNDUP
NATIONAL WEATHER SERVICE BISMARCK ND
500 PM CDT SUN MAY 29 2016

NOTE: "FAIR" INDICATES FEW OR NO CLOUDS BELOW 12,000 FEET WITH NO
SIGNIFICANT WEATHER AND/OR OBSTRUCTIONS TO VISIBILITY.


NDZ001>003-009>011-017-292300-
NORTHWEST NORTH DAKOTA

CITY           SKY/WX    TMP DP  RH WIND       PRES   REMARKS
WILLISTON      SUNNY     78  34  20 SW14G25   29.94F
MINOT          MOSUNNY   75  38  26 W12       29.95S
MINOT AFB      SUNNY     74  39  28 NW12G22   29.93F
$$

NDZ018>021-031>035-040>046-292300-
SOUTHWEST NORTH DAKOTA

CITY           SKY/WX    TMP DP  RH WIND       PRES   REMARKS
BISMARCK       SUNNY     79  43  27 NW6       29.95F
DICKINSON      MOSUNNY   76  31  19 W10G24    29.95F
GARRISON         N/A     76  43  30 W10       29.96F
HETTINGER ARPT CLOUDY    74  46  36 NW6       29.99F
$$

NDZ004>008-012>016-024-026-027-054-292300-
NORTHEAST NORTH DAKOTA

CITY           SKY/WX    TMP DP  RH WIND       PRES   REMARKS
GRAND FORKS    MOSUNNY   75  45  34 W16       29.91S
GRND FRKS AFB  MOSUNNY   75  45  33 NW17      29.92S
DEVILS LAKE    MOSUNNY   73  40  30 W12       29.95S
$$

NDZ022-023-025-028>030-036>039-047>053-292300-
SOUTHEAST NORTH DAKOTA

CITY           SKY/WX    TMP DP  RH WIND       PRES   REMARKS
FARGO          MOSUNNY   79  44  28 NW14G20   29.93F
JAMESTOWN      MOSUNNY   75  44  33 NW18G25   29.95F
$$





USA.gov is the U.S. government's official web portal to all federal, state and local government web resources and services.